Regional Weather Roundup
Issued by NWS Kansas City/Pleasant Hill, MO

Home | Current Version | Previous Version | Text Only | Print | Product List | Glossary On
Versions: 1 2 3 4 5 6 7 8 9 10 11 12 13 14 15 16 17 18 19 20 21 22 23 24 25 26 27 28 29 30 31 32 33 34 35 36 37 38 39 40 41 42 43 44 45 46 47 48 49 50
000
ASUS43 KEAX 271211
RWREAX

WEATHER ROUNDUP FOR EASTERN KANSAS AND NORTHWEST MISSOURI
NATIONAL WEATHER SERVICE KANSAS CITY/PLEASANT HILL MO
600 AM CST THU NOV 27 2014

KSZ040-057-103>105-MOZ028-029-037-043-271300-
...KANSAS CITY METROPOLITAN AREA...

CITY           SKY/WX    TMP DP  RH WIND       PRES   REMARKS
K.C. INTL      CLOUDY    24  20  84 N9        30.48R WCI  14
6HR MIN TEMP:  24; 6HR MAX TEMP:  27;

K.C. DOWNTOWN  CLOUDY    27  20  75 N7        30.49R WCI  19
6HR MIN TEMP:  27; 6HR MAX TEMP:  29;

LEES SUMMIT    CLOUDY    26  20  77 N9        30.48R WCI  17
6HR MIN TEMP:  26; 6HR MAX TEMP:  28;

OLATHE - IXD   MOCLDY    21  18  88 N6        30.47S WCI  13
6HR MIN TEMP:  20; 6HR MAX TEMP:  28;

OLATHE - OJC   PTCLDY    24  20  84 N9        30.46R WCI  14
6HR MIN TEMP:  24; 6HR MAX TEMP:  28;

LAWRENCE       CLOUDY    24  19  81 N12       30.49F HAZE    WCI  13

$$

MOZ001>008-011>017-020>025-030>033-038>040-044>046-053-054-271300-
...NORTHERN AND CENTRAL MISSOURI...

CITY           SKY/WX    TMP DP  RH WIND       PRES   REMARKS
ST. JOSEPH     CLOUDY    24  17  74 N13       30.50S WCI  12
6HR MIN TEMP:  24; 6HR MAX TEMP:  27;

MOSBY          CLOUDY    28  21  74 N10       30.49S WCI  19
WARRENSBURG    CLOUDY    28  23  80 NW8       30.49R WCI  20
WHITEMAN AFB   CLOUDY    27  22  81 NW9       30.47S WCI  18
6HR MIN TEMP:  27; 6HR MAX TEMP:  30;

CLINTON        CLOUDY    30  27  86 N8        30.48S WCI  23
SEDALIA        CLOUDY    28  24  85 N12       30.47S WCI  18
6HR MIN TEMP:  28; 6HR MAX TEMP:  32;

WARSAW         NOT AVBL
MARSHALL       CLOUDY    30  25  80 N12       30.49S WCI  21
CHILLICOTHE      N/A     27  20  75 NW6       30.49S WCI  20
6HR MIN TEMP:  27; 6HR MAX TEMP:  30;

MOBERLY        CLOUDY    28  21  74 NW12      30.46R WCI  18
KIRKSVILLE     CLOUDY    25  20  81 NW9       30.45R WCI  15
6HR MIN TEMP:  25; 6HR MAX TEMP:  30;


$$

MOZ041-047>049-056>058-063>065-088>090-097-271300-
...EASTERN AND SOUTHERN MISSOURI...

CITY           SKY/WX    TMP DP  RH WIND       PRES   REMARKS
ST. LOUIS INTL CLOUDY    30  24  78 NW9       30.41R WCI  22
6HR MIN TEMP:  30; 6HR MAX TEMP:  33; 6HR PCP: TRACE;

SPIRIT OF STL  CLOUDY    30  25  81 NW14      30.41R WCI  19
COLUMBIA       CLOUDY    29  26  89 NW15G24   30.44R FOG     WCI  18
JEFFERSON CITY CLOUDY    31  26  82 NW12      30.46R WCI  22
MEXICO         CLOUDY    32  32 100 NW16      30.42R WCI  21
ROLLA          CLOUDY    30  26  85 NW10      30.40R WCI  21
LEBANON        CLOUDY    30  27  86 NW9       30.43R WCI  22
OSAGE BEACH    CLOUDY    30  25  80 NW7       30.44S WCI  23
SPRINGFIELD    CLOUDY    30  23  75 N9        30.44S WCI  22
NEVADA         CLEAR     23  21  93 N5        30.50R WCI  17
JOPLIN         CLEAR     23  20  88 VRB3      30.48S
WEST PLAINS    CLOUDY    32  25  75 N9G20     30.41R WCI  24

$$

IAZ060-094-KSZ022-034>040-054-083-096-NEZ052-066-093-271300-
...KANSAS...SOUTHEAST NEBRASKA AND IOWA...

CITY           SKY/WX    TMP DP  RH WIND       PRES   REMARKS
TOPEKA         CLOUDY    25  19  78 NE8       30.50S WCI  16
6HR MIN TEMP:  23; 6HR MAX TEMP:  28;

MANHATTAN      CLEAR     18  15  88 N3        30.50S
EMPORIA        CLEAR     18  15  88 W5        30.49R WCI  11
CHANUTE        CLEAR     21  18  88 NW3       30.50R
WICHITA        CLEAR     25  17  72 N6        30.49S WCI  18
OMAHA          CLOUDY    17  11  77 N13       30.51F WCI   4
LINCOLN        MOCLDY    16   9  74 NE6       30.48F WCI   7
FALLS CITY     MOCLDY    20  15  81 N8        30.48F WCI  10
LAMONI         CLOUDY    19  15  84 NW12      30.46R WCI   7
DES MOINES     PTCLDY     8   0  69 NW13      30.50R WCI  -8

$$



USA.gov is the U.S. government's official web portal to all federal, state and local government web resources and services.